Hauptseite
METAR-TAF:

METAR-TAF

Flughäfen :

Flugplatz Pontoise-Cormeilles

Pontoise, Frankreich

Breite: 49-05-48N, Länge: 002-02-27E, Höhe: 99 m

Beobachtung

Neuester Wetterbericht von vor 25 Minuten, um 05:00 UTC
Wind 1 kt aus Nord/Nordost
Temperatur 5°C
Luftfeuchtigkeit 93%
Luftdruck 1009 hPa
Sichtweite: 6000 m
Leicht bewölkt in der Höhe von 1200 ft
Geschlossene Wolkendecke in der Höhe von 3100 ft

METAR: LFPT 170500Z AUTO 03001KT 6000 FEW012 OVC031 05/04 Q1009

Zeit: 06:25 (05:25 UTC)


TAF: fehlend

Wetterbeobachtungen und Prognosen von mehr als 4000 Flughäfen (METAR und TAF Bericht).

Die verfügbaren Stationen werden durch gelbe und rote Markierungen auf der Karte dargestellt.

Führen Sie die Maus auf sie, um den Namen der Station zu sehen.

Darauf klicken, um die Beobachtung von Wetterbeobachtungen und Prognosen zu sehen.

Um die Karte zu ändern : klicken Sie auf den grünen Tasten mit einem schwarzen Kreuz Zum Vergrößern, auf den grünen Button mit einem Gedankenstrich zu verkleinern, oder auf die grünen Pfeile für benachbarte Karten.


METAR-TAF: